Flag for Germany Weather past 2 weeks in Herzogenrath, North Rhine-Westphalia, Germany

Now
39 °F

Passing clouds.


Feels Like: 35 °F
Forecast: 36 / 43 °F
Wind: 6 mph from Southwest

Location: Geilenkirchen Airport

Current Time: Jan 28, 2015 at 12:37:32 AM

Latest Report: Jan 27, 2015 at 11:50 PM


Visibility: 6 mi

Pressure: 30.18 "Hg

Humidity: 87%

Dew point: 36 °F

Location of HerzogenrathLocation

Historic Weather in Herzogenrath — Graph

°F

Herzogenrath temperature yesterday

Maximum temperature yesterday: 43 °F (at 12:50 PM)
Minimum temperature yesterday: 36 °F (at 2:50 AM)
Average temperature yesterday: 39 °F

Past Weeks' High & Low Weather Summary

 TemperatureHumidityPressure
High54 °F (Jan 13, 12:50 PM)100% (Jan 19, 7:50 AM)30.39 "Hg (Jan 19, 7:50 AM)
Low27 °F (Jan 19, 5:50 AM)62% (Jan 13, 10:50 AM)29.42 "Hg (Jan 15, 2:50 PM)
Average38 °F84%29.93 "Hg
* Reported Jan 12 10:50 PM — Jan 27 10:50 PM, Herzogenrath, Weather by CustomWeather, © 2014

Note: Actual official high and low records may vary slightly from our data, if they occured in-between our weather recording intervals... More about our weather records

Advertising

Herzogenrath weather history for previous 24 hours

 ConditionsComfort  
Time TempWeatherWind HumidityBarometerVisibility
10:50 PM
Jan 27
39 °FPassing clouds.7 mph87%30.21 "HgN/A
9:50 PM39 °FPartly cloudy.5 mph93%30.21 "HgN/A
8:50 PM41 °FPartly cloudy.6 mph87%30.21 "HgN/A
7:50 PM41 °FPassing clouds.9 mph87%30.21 "HgN/A
6:50 PM41 °FPassing clouds.9 mph87%30.21 "HgN/A
5:50 PM41 °FPartly cloudy.12 mph87%30.21 "HgN/A
4:50 PM41 °FBroken clouds.12 mph87%30.21 "HgN/A
3:50 PM43 °FBroken clouds.12 mph87%30.21 "HgN/A
2:50 PM43 °FBroken clouds.14 mph87%30.21 "HgN/A
1:50 PM41 °FBroken clouds.12 mph93%30.21 "HgN/A
12:50 PM43 °FBroken clouds.13 mph87%30.24 "HgN/A
11:50 AM41 °FBroken clouds.12 mph93%30.24 "HgN/A
10:50 AM39 °FBroken clouds.13 mph93%30.24 "HgN/A
9:50 AM37 °FPartly sunny.8 mph100%30.24 "Hg5 mi
8:50 AM37 °FBroken clouds.9 mph93%30.24 "Hg5 mi
7:50 AM37 °FPassing clouds.8 mph87%30.21 "HgN/A
6:50 AM37 °FPassing clouds.9 mph93%30.21 "HgN/A
5:50 AM37 °FPassing clouds.8 mph93%30.21 "HgN/A
4:50 AM36 °FPassing clouds.8 mph93%30.21 "HgN/A
3:50 AM36 °FPassing clouds.9 mph93%30.18 "HgN/A
2:50 AM36 °FPassing clouds.9 mph93%30.18 "HgN/A
1:50 AM39 °FSprinkles. Partly cloudy.8 mph87%30.18 "HgN/A
12:50 AM37 °FSprinkles. Passing clouds.6 mph93%30.18 "HgN/A
Weather by CustomWeather, © 2014

See weather overviewHow to use our weather pages